EN

Hourly Weather Alpedrete

Today, 23 January, Saturday

Time Temperature Precipitation Wind Pressure Humidity
00:00 -2°C° 0 mm 5 mps 654 mmHg 88%
01:00 -2°C° 0.1 mm 5 mps 654 mmHg 90%
02:00 -2°C° 0.1 mm 5 mps 654 mmHg 91%
03:00 -2°C° 0.1 mm 5 mps 653 mmHg 93%
04:00 -2°C° 0.1 mm 5 mps 653 mmHg 93%
05:00 -2°C° 0.1 mm 5 mps 653 mmHg 93%
06:00 -2°C° 0.1 mm 5 mps 652 mmHg 92%
07:00 -2°C° 0.1 mm 5 mps 653 mmHg 91%
08:00 -1°C° 0.1 mm 5 mps 653 mmHg 89%
09:00 -1°C° 0.1 mm 5 mps 653 mmHg 88%
10:00 -1°C° 0 mm 5 mps 653 mmHg 87%
11:00 0°C° 0 mm 4 mps 653 mmHg 87%
12:00 0°C° 0 mm 4 mps 653 mmHg 86%
13:00 +1°C° 0.4 mm 4 mps 652 mmHg 88%
14:00 +1°C° 0.4 mm 4 mps 652 mmHg 89%
15:00 +1°C° 0.4 mm 4 mps 651 mmHg 91%
16:00 +1°C° 0.3 mm 4 mps 650 mmHg 93%
17:00 +1°C° 0.3 mm 4 mps 649 mmHg 94%
18:00 +1°C° 0.3 mm 4 mps 648 mmHg 96%
19:00 +3°C° 0.7 mm 4 mps 648 mmHg 96%
20:00 +3°C° 0.7 mm 4 mps 648 mmHg 97%
21:00 +3°C° 0.7 mm 4 mps 648 mmHg 97%
22:00 +2°C° 0.2 mm 5 mps 648 mmHg 93%
23:00 +2°C° 0.2 mm 7 mps 649 mmHg 90%

Tomorrow, 24 January, Sunday

Time Temperature Precipitation Wind Pressure Humidity
00:00 +1°C° 0.2 mm 8 mps 649 mmHg 86%
01:00 +1°C° 0 mm 9 mps 649 mmHg 84%
02:00 0°C° 0 mm 10 mps 650 mmHg 82%
03:00 -1°C° 0 mm 11 mps 650 mmHg 80%
04:00 0°C° 0.1 mm 9 mps 651 mmHg 82%
05:00 -1°C° 0.1 mm 8 mps 651 mmHg 85%
06:00 -1°C° 0.1 mm 7 mps 652 mmHg 87%
07:00 -1°C° 0 mm 6 mps 653 mmHg 85%
08:00 -1°C° 0 mm 6 mps 653 mmHg 83%
09:00 0°C° 0 mm 5 mps 654 mmHg 81%
10:00 0°C° 0 mm 5 mps 654 mmHg 77%
11:00 +1°C° 0 mm 5 mps 654 mmHg 73%
12:00 +3°C° 0 mm 4 mps 655 mmHg 68%
13:00 +2°C° 0 mm 5 mps 655 mmHg 68%
14:00 +3°C° 0 mm 5 mps 654 mmHg 68%
15:00 +3°C° 0 mm 5 mps 654 mmHg 68%
16:00 +2°C° 0 mm 5 mps 654 mmHg 72%
17:00 +1°C° 0 mm 4 mps 654 mmHg 76%
18:00 +1°C° 0 mm 3 mps 654 mmHg 79%
19:00 +1°C° 0 mm 3 mps 655 mmHg 81%
20:00 +1°C° 0 mm 3 mps 655 mmHg 82%
21:00 +1°C° 0 mm 2 mps 655 mmHg 84%
22:00 +1°C° 0 mm 2 mps 655 mmHg 84%
23:00 +1°C° 0 mm 2 mps 656 mmHg 84%

Day after tomorrow, 25 January, Monday

Time Temperature Precipitation Wind Pressure Humidity
00:00 +1°C° 0 mm 2 mps 656 mmHg 84%
01:00 +1°C° 0 mm 2 mps 656 mmHg 85%
02:00 +1°C° 0 mm 2 mps 656 mmHg 86%
03:00 +1°C° 0 mm 2 mps 656 mmHg 87%
04:00 +1°C° 0 mm 2 mps 656 mmHg 88%
05:00 -1°C° 0 mm 2 mps 656 mmHg 89%
06:00 -1°C° 0 mm 2 mps 656 mmHg 89%
07:00 +2°C° 0 mm 1 mps 656 mmHg 87%
08:00 +2°C° 0 mm 1 mps 657 mmHg 86%
09:00 +3°C° 0 mm 1 mps 657 mmHg 84%
10:00 +4°C° 0 mm 1 mps 658 mmHg 79%
11:00 +5°C° 0 mm 1 mps 658 mmHg 73%
12:00 +6°C° 0 mm 1 mps 658 mmHg 68%
13:00 +6°C° 0 mm 1 mps 658 mmHg 67%
14:00 +6°C° 0 mm 2 mps 658 mmHg 66%
15:00 +6°C° 0 mm 2 mps 658 mmHg 65%
16:00 +5°C° 0 mm 2 mps 658 mmHg 70%
17:00 +6°C° 0 mm 1 mps 658 mmHg 76%
18:00 +5°C° 0 mm 1 mps 658 mmHg 81%
19:00 +5°C° 0.1 mm 1 mps 659 mmHg 84%
20:00 +5°C° 0.1 mm 1 mps 659 mmHg 86%
21:00 +4°C° 0.1 mm 1 mps 659 mmHg 88%
22:00 +4°C° 0 mm 1 mps 659 mmHg 88%
23:00 +4°C° 0 mm 1 mps 659 mmHg 89%

26 January, Tuesday

Time Temperature Precipitation Wind Pressure Humidity
00:00 +4°C° 0 mm 1 mps 660 mmHg 89%
01:00 +5°C° 0 mm 1 mps 660 mmHg 90%
02:00 +5°C° 0 mm 1 mps 660 mmHg 91%
03:00 +5°C° 0 mm 1 mps 660 mmHg 92%
04:00 +5°C° 0 mm 1 mps 660 mmHg 93%
05:00 +5°C° 0 mm 1 mps 660 mmHg 93%
06:00 +5°C° 0 mm 1 mps 659 mmHg 94%
07:00 +5°C° 0.1 mm 1 mps 660 mmHg 94%
08:00 +4°C° 0.1 mm 2 mps 660 mmHg 93%
09:00 +4°C° 0.1 mm 2 mps 660 mmHg 93%
10:00 +5°C° 0 mm 2 mps 661 mmHg 91%
11:00 +6°C° 0 mm 2 mps 661 mmHg 88%
12:00 +6°C° 0 mm 2 mps 661 mmHg 86%
13:00 +7°C° 0.1 mm 2 mps 661 mmHg 88%
14:00 +7°C° 0.1 mm 2 mps 661 mmHg 90%
15:00 +7°C° 0.1 mm 2 mps 661 mmHg 92%
16:00 +7°C° 0.1 mm 2 mps 661 mmHg 94%
17:00 +7°C° 0.1 mm 2 mps 661 mmHg 95%
18:00 +6°C° 0.1 mm 2 mps 661 mmHg 97%
19:00 +6°C° 0.1 mm 2 mps 662 mmHg 97%
20:00 +7°C° 0.1 mm 2 mps 662 mmHg 97%
21:00 +8°C° 0.1 mm 1 mps 662 mmHg 97%
22:00 +8°C° 0 mm 1 mps 662 mmHg 97%
23:00 +7°C° 0 mm 1 mps 662 mmHg 97%

27 January, Wednesday

Time Temperature Precipitation Wind Pressure Humidity
00:00 +7°C° 0 mm 1 mps 663 mmHg 97%
01:00 +7°C° 0 mm 1 mps 662 mmHg 97%
02:00 +7°C° 0 mm 1 mps 662 mmHg 97%
03:00 +7°C° 0 mm 1 mps 662 mmHg 97%
04:00 +7°C° 0 mm 1 mps 662 mmHg 97%
05:00 +6°C° 0 mm 1 mps 662 mmHg 97%
06:00 +6°C° 0 mm 1 mps 662 mmHg 97%
07:00 +7°C° 0 mm 1 mps 662 mmHg 96%
08:00 +7°C° 0 mm 1 mps 662 mmHg 95%
09:00 +7°C° 0 mm 1 mps 663 mmHg 94%
10:00 +8°C° 0 mm 1 mps 663 mmHg 89%
11:00 +9°C° 0 mm 1 mps 663 mmHg 84%
12:00 +10°C° 0 mm 1 mps 664 mmHg 80%
13:00 +11°C° 0 mm 1 mps 664 mmHg 79%
14:00 +11°C° 0 mm 1 mps 663 mmHg 79%
15:00 +10°C° 0 mm 2 mps 663 mmHg 79%
16:00 +10°C° 0 mm 1 mps 663 mmHg 83%
17:00 +9°C° 0 mm 1 mps 663 mmHg 88%
18:00 +8°C° 0 mm 1 mps 662 mmHg 93%
19:00 +8°C° 0 mm 1 mps 663 mmHg 93%
20:00 +8°C° 0 mm 1 mps 663 mmHg 93%
21:00 +7°C° 0 mm 1 mps 663 mmHg 93%
22:00 +7°C° 0 mm 1 mps 663 mmHg 93%
23:00 +7°C° 0 mm 1 mps 663 mmHg 93%

28 January, Thursday

Time Temperature Precipitation Wind Pressure Humidity
00:00 +7°C° 0 mm 1 mps 663 mmHg 93%
01:00 +7°C° 0 mm 1 mps 663 mmHg 94%
02:00 +7°C° 0 mm 1 mps 663 mmHg 94%
03:00 +7°C° 0 mm 1 mps 663 mmHg 94%
04:00 +6°C° 0 mm 1 mps 663 mmHg 94%
05:00 +6°C° 0 mm 1 mps 662 mmHg 94%
06:00 +6°C° 0 mm 1 mps 662 mmHg 94%
07:00 +7°C° 0 mm 1 mps 663 mmHg 93%
08:00 +7°C° 0 mm 1 mps 663 mmHg 92%
09:00 +8°C° 0 mm 1 mps 664 mmHg 90%
10:00 +9°C° 0 mm 1 mps 664 mmHg 85%
11:00 +10°C° 0 mm 1 mps 664 mmHg 81%
12:00 +10°C° 0 mm 2 mps 665 mmHg 76%
13:00 +12°C° 0 mm 2 mps 664 mmHg 73%
14:00 +12°C° 0 mm 2 mps 664 mmHg 71%
15:00 +13°C° 0 mm 2 mps 664 mmHg 69%
16:00 +10°C° 0 mm 2 mps 664 mmHg 75%
17:00 +9°C° 0 mm 2 mps 663 mmHg 81%
18:00 +8°C° 0 mm 2 mps 663 mmHg 87%
Show more